This is the latest recevied weather packets stored in our database for station/object EA2KR-10. If no packets are shown the sender has not sent any weather packets the latest 10 day(s).
| Time | Temp. | Humidity | Pressure | Rain* | Wind** | Luminosity | Snow |
|---|---|---|---|---|---|---|---|
| 1788633213 | 45° C | 14% | 1032.7 hPa | - | - | - | - |
| 1788631447 | 47.22° C | 12% | 1032.8 hPa | - | - | - | - |
| 1788629613 | 48.89° C | 11% | 1032.5 hPa | - | - | - | - |
| 1788627813 | 50.56° C | 11% | 1032.5 hPa | - | - | - | - |
| 1788626013 | 52.22° C | 11% | 1032.4 hPa | - | - | - | - |
| 1788624223 | 52.22° C | 11% | 1032.5 hPa | - | - | - | - |
| 1788622438 | 51.67° C | 11% | 1032.7 hPa | - | - | - | - |
| 1788620612 | 51.67° C | 12% | 1033 hPa | - | - | - | - |
| 1788618812 | 50.56° C | 14% | 1033.4 hPa | - | - | - | - |
| 1788617012 | 50° C | 14% | 1033.6 hPa | - | - | - | - |
| 1788615212 | 48.33° C | 15% | 1034 hPa | - | - | - | - |
| 1788613412 | 47.22° C | 17% | 1034.5 hPa | - | - | - | - |
| 1788611612 | 45.56° C | 19% | 1034.6 hPa | - | - | - | - |
| 1788609812 | 43.33° C | 20% | 1034.9 hPa | - | - | - | - |
| 1788608011 | 41.11° C | 22% | 1035.1 hPa | - | - | - | - |
| 1788606211 | 38.89° C | 23% | 1035.3 hPa | - | - | - | - |
| 1788604411 | 37.22° C | 24% | 1035.5 hPa | - | - | - | - |
| 1788602611 | 35.56° C | 25% | 1035.5 hPa | - | - | - | - |
| 1788600811 | 34.44° C | 26% | 1035.4 hPa | - | - | - | - |
| 1788599011 | 32.78° C | 27% | 1035.1 hPa | - | - | - | - |
| 1788597211 | 31.11° C | 27% | 1035.1 hPa | - | - | - | - |
| 1788595411 | 29.44° C | 28% | 1035.2 hPa | - | - | - | - |
| 1788593611 | 28.33° C | 28% | 1035 hPa | - | - | - | - |
| 1788591810 | 27.78° C | 27% | 1035 hPa | - | - | - | - |
| 1788590012 | 27.22° C | 27% | 1034.7 hPa | - | - | - | - |
* Rain since midnight (hover to see other rain measurements)
** Current wind speed in m/s (hover to see current wind gust speed)